Precipitable_Water
1.29 1.28 1.37 1.51 1.57 1.52 1.54 1.53 1.50 1.58 1.40 1.28 1.38 1.50 1.60 1.87 1.91 2.02 1.79 1.79 1.80 1.88 1.89 1.89 1.89 1.83 1.79 1.68 1.69 1.59 1.54 1.44 1.52
1.21 1.29 1.39 1.39 1.52 1.58 1.60 1.54 1.63 1.67 1.56 1.40 1.34 1.39 1.54 1.62 1.79 1.85 1.65 1.67 1.72 1.77 1.79 1.92 1.93 1.84 1.79 1.75 1.73 1.76 1.68 1.46 1.47
1.20 1.32 1.42 1.53 1.61 1.65 1.76 1.68 1.69 1.84 1.88 1.54 1.28 1.32 1.44 1.52 1.57 1.72 1.64 1.65 1.61 1.74 1.74 1.80 1.95 1.91 1.74 1.84 1.71 1.60 1.61 1.53 1.52
1.20 1.25 1.38 1.46 1.57 1.70 1.69 1.88 1.85 1.89 1.73 1.83 1.75 1.41 1.30 1.35 1.41 1.47 1.56 1.51 1.56 1.68 1.64 1.95 1.85 1.95 1.99 1.71 1.76 1.88 1.80 1.71 1.71
1.46 1.40 1.39 1.42 1.50 1.69 1.80 1.84 1.92 1.82 1.81 1.75 1.89 1.52 1.36 1.37 1.39 1.36 1.37 1.41 1.48 1.52 1.53 1.86 1.95 2.03 2.06 1.98 1.95 1.89 1.91 1.88 1.79
1.54 1.53 1.44 1.46 1.60 1.73 1.76 1.83 1.86 1.90 1.92 1.89 1.80 1.62 1.48 1.37 1.38 1.29 1.28 1.36 1.45 1.51 1.61 1.73 1.87 1.95 1.98 1.99 2.00 2.00 1.96 1.93 1.89
1.29 1.39 1.41 1.45 1.56 1.74 1.80 1.83 1.86 1.84 2.02 2.18 1.92 1.90 1.69 1.69 1.63 1.75 1.72 1.63 1.56 1.46 1.53 1.52 1.63 1.81 1.87 1.95 2.02 2.06 2.15 2.04 1.85
1.14 1.27 1.31 1.49 1.61 1.71 1.77 1.77 1.80 1.88 1.88 1.93 2.04 2.01 1.95 1.88 1.91 2.10 2.16 2.00 1.95 1.77 1.61 1.60 1.64 1.64 1.78 1.90 2.01 2.04 1.93 1.80 1.77
1.42 1.40 1.45 1.55 1.65 1.73 1.69 1.75 1.75 1.80 1.65 1.81 2.00 2.05 1.99 2.05 2.13 2.05 2.15 2.18 2.20 2.06 1.95 1.87 1.71 1.64 1.66 1.62 1.75 1.85 1.88 1.83 1.78
1.80 1.55 1.62 1.61 1.62 1.71 1.79 1.76 1.74 1.74 1.71 1.85 2.01 2.06 2.10 2.07 2.02 1.98 2.04 2.09 2.12 2.17 2.03 2.05 2.12 1.96 1.76 1.57 1.57 1.63 1.69 1.74 1.76
1.32 1.53 1.55 1.68 1.75 1.82 1.91 2.02 1.94 1.99 1.97 2.00 2.00 1.93 1.93 1.97 2.01 2.00 1.99 1.99 2.00 2.09 2.14 2.12 2.15 2.08 2.02 1.92 1.76 1.76 1.68 1.66 1.68
1.18 1.46 1.51 1.63 1.74 1.81 1.93 2.00 2.07 2.05 2.04 2.11 2.03 1.96 1.97 2.00 1.98 1.92 1.89 1.83 1.90 2.04 2.06 2.05 2.02 2.01 1.93 1.79 1.74 1.80 1.89 1.92 1.83
1.18 1.24 1.39 1.54 1.66 1.69 1.78 1.90 2.07 2.00 2.01 2.04 2.03 2.04 2.06 2.06 2.00 1.86 1.77 1.72 1.78 1.91 2.00 1.94 1.92 1.86 1.82 1.78 1.73 1.83 1.81 1.85 1.87
1.20 1.26 1.27 1.36 1.49 1.49 1.61 1.76 1.80 1.76 1.86 1.95 2.09 2.07 2.08 2.04 1.97 1.88 1.77 1.71 1.74 1.68 1.66 1.72 1.74 1.76 1.79 1.77 1.68 1.64 1.67 1.72 1.80
1.07 1.10 1.23 1.22 1.29 1.38 1.48 1.61 1.63 1.57 1.63 1.79 1.92 1.96 1.92 1.94 1.93 1.90 1.88 1.77 1.75 1.69 1.59 1.57 1.62 1.60 1.60 1.62 1.61 1.63 1.58 1.57 1.70
1.04 1.10 1.16 1.26 1.24 1.27 1.34 1.40 1.44 1.42 1.51 1.63 1.70 1.72 1.73 1.80 1.81 1.77 1.81 1.79 1.68 1.64 1.64 1.51 1.51 1.53 1.46 1.52 1.52 1.41 1.42 1.47 1.38
0.98 1.05 1.06 1.12 1.12 1.12 1.13 1.21 1.29 1.33 1.40 1.48 1.51 1.53 1.55 1.61 1.59 1.62 1.64 1.63 1.64 1.62 1.58 1.50 1.45 1.43 1.35 1.28 1.33 1.35 1.33 1.24 1.17
0.94 0.92 0.98 1.00 1.04 1.06 1.06 1.11 1.11 1.14 1.17 1.24 1.32 1.34 1.38 1.46 1.49 1.45 1.49 1.54 1.54 1.47 1.48 1.43 1.34 1.36 1.34 1.28 1.20 1.17 1.10 1.04 0.97
0.98 0.98 0.97 1.00 1.01 0.96 0.91 0.90 0.96 1.04 1.11 1.15 1.11 1.11 1.18 1.25 1.30 1.28 1.24 1.32 1.36 1.39 1.33 1.38 1.35 1.34 1.27 1.21 1.14 1.03 0.92 0.84 0.71
0.95 0.93 0.92 0.93 0.97 1.00 1.00 0.95 0.93 0.95 0.99 0.99 0.95 0.92 1.00 1.05 1.11 1.09 1.00 0.99 0.95 0.92 0.99 1.01 1.11 1.22 1.20 1.14 1.03 0.90 0.75 0.63 0.56
Wind_Speed
31 27 28 27 26 23 24 23 21 19 17 16 16 16 14 12 11 9 7 8 7 6 7 7 7 5 6 6 5 5 4 4 4
32 28 26 28 29 24 25 24 24 21 19 18 17 17 15 14 12 10 9 8 7 8 7 10 8 7 6 6 5 5 5 4 4
27 28 27 26 28 24 26 25 22 23 20 18 18 18 18 16 15 13 11 9 8 7 5 10 10 8 7 6 6 4 4 4 4
20 26 27 26 26 25 24 25 24 23 22 19 19 18 19 18 17 16 14 12 10 9 8 7 8 8 7 7 6 6 5 5 5
22 20 25 26 25 25 27 26 26 23 23 21 20 19 20 18 17 17 16 15 13 11 11 10 9 10 9 9 9 8 7 6 6
22 19 20 22 22 23 26 24 23 24 21 22 23 20 20 20 19 18 16 15 14 13 12 12 11 11 11 10 10 9 9 8 8
17 19 18 20 20 21 23 24 21 24 24 24 23 23 20 20 19 18 16 16 16 16 15 14 13 13 12 12 12 11 11 10 10
17 19 18 18 19 20 22 23 21 22 26 35 25 24 22 19 19 17 15 15 17 17 18 16 15 15 15 13 13 13 12 13 12
14 16 17 17 18 20 20 21 21 22 19 23 24 26 25 21 20 20 18 18 18 19 16 17 18 17 16 16 15 15 14 13 13
2 12 11 14 16 19 20 20 21 21 21 21 21 22 22 21 20 20 20 19 20 22 23 21 18 16 17 17 18 18 17 17 16
8 5 8 11 13 14 16 18 19 20 23 23 22 20 20 20 21 20 19 18 19 21 20 21 19 18 17 17 17 18 19 19 18
10 8 10 13 12 14 14 16 18 20 21 23 22 21 20 20 19 17 17 16 16 18 19 19 20 19 19 21 21 21 19 19 18
12 12 12 13 13 14 13 12 13 16 18 20 19 18 18 17 16 15 13 12 12 13 16 18 19 19 18 18 18 17 18 18 20
13 13 13 13 13 14 15 14 13 13 14 14 15 17 17 16 15 15 14 13 12 11 12 13 15 16 16 16 16 17 17 17 18
18 18 14 13 14 15 14 14 15 14 14 15 15 16 17 17 18 17 17 16 14 12 13 14 14 15 15 16 16 16 15 15 14
20 19 18 16 15 15 16 16 16 16 16 17 17 18 18 18 17 17 17 17 17 15 15 16 16 16 16 16 15 15 14 14 14
19 20 19 19 19 17 17 17 17 18 18 18 17 17 17 17 17 18 18 18 18 18 18 17 17 17 16 16 16 16 16 16 15
17 18 19 19 19 19 19 19 18 19 20 20 20 20 20 20 20 19 19 19 19 19 19 20 19 19 19 19 19 19 19 19 20
13 16 18 18 17 17 17 18 19 20 20 20 21 22 23 23 23 24 24 23 23 22 22 22 22 22 22 21 22 22 23 23 24
13 13 15 17 18 19 19 18 18 20 20 20 21 22 22 23 24 25 25 24 24 25 25 25 26 26 26 26 27 27 27 27 27
Wind_Direction
204 205 207 209 209 210 208 206 203 201 199 202 204 204 206 206 207 204 202 200 195 202 205 204 207 201 204 211 207 207 203 205 206
204 206 211 213 209 213 208 204 203 207 206 207 209 208 209 210 209 208 205 211 219 226 236 225 211 209 210 207 211 214 210 214 228
201 204 207 210 205 207 207 207 208 206 208 214 213 216 216 217 217 216 217 219 223 230 244 203 209 203 207 214 208 206 210 219 234
201 206 207 206 208 210 205 204 202 214 213 214 217 220 217 219 222 223 223 226 229 227 216 214 211 202 209 212 222 227 227 237 238
210 206 209 208 209 210 211 216 218 216 216 216 221 220 219 221 221 223 224 227 229 227 225 226 222 222 226 230 234 236 241 250 246
206 205 204 203 208 209 210 211 213 214 219 222 220 219 218 219 220 223 226 227 230 229 229 228 228 229 232 234 235 238 242 252 248
197 197 199 202 206 208 210 213 222 225 222 230 224 217 218 216 219 219 228 232 232 233 229 232 234 234 238 240 243 246 248 252 254
210 207 205 202 206 210 212 216 221 224 257 219 218 214 212 214 218 222 229 241 239 235 232 235 235 237 239 241 242 246 254 256 259
224 210 207 210 214 211 215 216 220 227 227 216 209 215 218 225 226 229 240 252 243 229 234 239 239 239 240 241 246 250 255 258 256
251 194 212 216 210 216 221 223 224 224 219 212 214 215 214 219 229 240 251 253 243 239 240 242 244 237 241 243 248 252 255 259 256
247 255 231 217 211 214 222 223 222 220 218 218 219 221 226 233 239 245 251 252 249 239 241 240 239 237 242 245 250 256 259 258 255
252 242 244 233 227 228 228 226 223 220 220 221 227 229 232 238 240 242 249 249 245 239 234 237 240 245 251 252 253 260 260 253 250
249 255 251 244 239 233 235 235 223 221 222 223 227 230 230 231 234 235 236 237 240 239 239 240 243 244 251 250 251 253 256 255 249
249 252 251 245 236 233 237 236 234 232 233 227 227 227 225 226 229 234 235 238 239 240 241 240 242 246 247 249 251 256 255 261 254
252 248 248 246 238 233 235 234 233 234 238 239 239 237 236 235 238 239 242 240 243 248 246 244 245 248 250 253 254 252 250 252 254
246 243 240 240 235 238 239 239 239 237 241 241 241 242 245 244 244 243 241 242 244 249 252 251 251 252 252 249 251 243 247 249 248
239 237 238 235 236 240 240 241 241 242 243 242 241 240 239 240 240 242 245 247 250 249 253 254 254 252 251 246 244 246 247 249 251
233 231 232 235 238 240 244 244 243 243 244 243 244 244 245 243 244 246 245 250 251 252 254 254 254 254 248 247 248 248 250 252 254
228 229 229 231 233 235 239 241 244 245 246 246 247 248 249 249 249 250 251 251 252 255 257 255 254 253 251 251 251 252 254 257 259
236 235 233 233 235 238 244 244 246 248 250 249 249 251 251 252 253 250 253 254 252 255 256 258 256 255 255 255 256 258 259 260 260